Voltar ao catálogo

COSMOS 1691 DEB

AtivoPO
NORAD 43317·DEBRIS·🇷🇺 Russia

Lançado Oct 9, 1985 de Plesetsk Cosmodrome

Loading…

Próximas Passagens (próximas 24 horas)

TLE

EnvelhecendoSource: Space-Track

Época: Sep 5, 2026, 13:21 UTC

1 43317U 85094AB  26248.55631603  .00000208  00000-0  90507-3 0  9999
2 43317  82.5592 357.5807 0022189 156.0169 204.1969 12.76892067595510

Acompanhe COSMOS 1691 DEB em tempo real com AllMySat

Download on the App Store